Regional Weather Roundup
Issued by NWS

Home | Current Version | Previous Version | Text Only | Print | Product List | Glossary On
Versions: 1 2 3 4 5 6 7 8 9 10 11 12 13 14 15 16 17 18 19 20 21 22 23 24 25 26 27 28 29 30 31 32 33 34 35 36 37 38 39 40 41 42 43 44 45 46 47 48 49 50
000
ASUS43 KLSX 022007
RWRMO

WEATHER SUMMARY FOR MISSOURI
NATIONAL WEATHER SERVICE SPRINGFIELD MO
300 PM CDT SUN AUG 02 2015

NOTE: "FAIR" INDICATES FEW OR NO CLOUDS BELOW 12,000 FEET WITH NO
       SIGNIFICANT WEATHER AND/OR OBSTRUCTIONS TO VISIBILITY.
       CURRENT SKY AND/OR WEATHER CONDITIONS ARE NOT AVAILABLE FOR
       CHILLICOTHE AND FARMINGTON.

MOZ001>031-035>038-043-044-053-054-022100-
...NORTHERN AND WESTERN MISSOURI...

CITY           SKY/WX    TMP DP  RH WIND       PRES   REMARKS
KANSAS CTY INT MOSUNNY   89  70  53 SW12      29.89F HX  94
KANSAS C DTWN  SUNNY     93  66  40 SW14G20   29.87F HX  96
LEE`S SUMMIT   SUNNY     91  64  40 W12       29.90F HX  92
ST JOSEPH      SUNNY     89  73  59 SW13G23   29.86F HX  97
CHILLICOTHE      N/A     91  72  53 VRB6      29.87F HX  98
KIRKSVILLE     SUNNY     90  72  55 SW12G21   29.86F HX  97

$$
MOZ066>068-077>081-088>096-101>105-022100-
...SOUTHWEST MISSOURI...

CITY           SKY/WX    TMP DP  RH WIND       PRES   REMARKS
SPRINGFIELD    MOSUNNY   92  62  36 W10       29.95F HX  92
JOPLIN         SUNNY     93  63  36 SW14      29.95F HX  94

$$
MOZ032>034-039>042-045>050-055>058-069>072-022100-
...CENTRAL MISSOURI...

CITY           SKY/WX    TMP DP  RH WIND       PRES   REMARKS
COLUMBIA       MOSUNNY   89  70  53 SW14      29.91F HX  94
JEFFERSON CITY MOSUNNY   91  66  43 W10       29.89F HX  93
ROLLA          SUNNY     91  63  39 W12       29.92F HX  92
SEDALIA        SUNNY     91  68  46 W12       29.92F HX  95
WHITEMAN AFB   SUNNY     92  66  41 W12       29.89F HX  95
WARRENSBURG    SUNNY     90  63  40 SW13      29.90S HX  90
OSAGE BEACH    SUNNY     91  64  40 W8        29.92F HX  93

$$
MOZ051-052-059>065-022100-
...EAST CENTRAL MISSOURI...

CITY           SKY/WX    TMP DP  RH WIND       PRES   REMARKS
ST LOUIS INTL  MOSUNNY   94  69  44 W10       29.89F HX  99
SPIRIT OF STL  MOSUNNY   92  71  50 SW10      29.87F HX  98
ST CHARLES     SUNNY     93  69  45 SW9       29.87F HX  98

$$
MOZ072>076-082>087-097>100-106>115-022100-
...SOUTH CENTRAL AND SOUTHEAST MISSOURI...

CITY           SKY/WX    TMP DP  RH WIND       PRES   REMARKS
CAPE GIRARDEAU MOSUNNY   89  75  63 SW8       29.91F HX  99
FARMINGTON     MOSUNNY   91  68  46 SW8       29.97F HX  95
POPLAR BLUFF   MOSUNNY   90  71  53 S7        29.91F HX  96
WEST PLAINS    SUNNY     89  65  44 VRB3      29.97F HX  91

$$



USA.gov is the U.S. government's official web portal to all federal, state and local government web resources and services.